[[{"header":{"parameterUnit":"m.s-1","parameterCategory":1,"la1":30.2991,"la2":30.254,"lo1":-89.0895,"lo2":-89.0444,"dy":0.0017,"dx":0.0017,"nx":28,"ny":28,"refTime":"2023-07-21T21:00:00:Z","depth":0,"parameterNumber":2,"parameterNumberName":"U-component_of_WINDS"},"data":[0,0,0,0,0,0,0,0,0,0,0,0,0,0,0,0,0,0,0,0,0,0,0,0,0,0,0,0,0,0,0,0,0,0,0,0,0,0,0,0,0,0,0,0,0,0,0,0,0,0,0,0,0,0,0,0,0,0,-1.3982,-1.3986,0,-1.4371,-1.4376,-1.438,-1.4481,-1.4479,-1.4476,-1.4474,-1.4884,-1.4897,-1.491,0,0,0,0,0,0,0,0,0,0,0,0,0,-1.3335,-1.3346,-1.3981,-1.3986,-1.3991,-1.4371,-1.4376,-1.4381,-1.4481,-1.4478,-1.4475,-1.4473,-1.4879,-1.4895,-1.4911,0,0,0,0,0,0,0,0,0,0,0,0,0,-1.366,-1.335,-1.3981,-1.4087,-1.41,-1.437,-1.4376,-1.4383,-1.4482,-1.4478,-1.4475,-1.4471,-1.4874,-1.4893,-1.4913,-1.5108,0,0,-1.4973,-1.4982,0,0,0,0,0,0,0,0,-1.3641,-1.3683,-1.4066,-1.408,-1.4095,-1.4374,-1.4299,-1.4627,-1.4483,-1.4337,-1.4474,-1.4469,-1.4718,-1.475,-1.4832,-1.5128,-1.5145,-1.4975,-1.4987,-1.4996,-1.5001,0,0,0,0,0,0,0,-1.3618,-1.3667,-1.4136,-1.4072,-1.409,-1.4118,-1.416,-1.4361,-1.4544,-1.435,-1.4358,-1.4402,-1.4725,-1.4812,-1.4842,-1.5151,-1.4975,-1.4992,-1.5004,-1.5012,-1.563,-1.5634,0,0,0,0,0,0,-1.3576,-1.3648,-1.4124,-1.4148,-1.3854,-1.4133,-1.418,-1.4288,-1.4542,-1.4577,-1.4405,-1.4405,-1.478,-1.4819,-1.4857,-1.5103,-1.4995,-1.5014,-1.5025,-1.5625,-1.5631,-1.5635,0,0,0,0,0,0,-1.3562,-1.3618,-1.4108,-1.39,-1.3965,-1.4148,-1.4269,-1.4298,-1.4385,-1.4583,-1.4617,-1.446,-1.4779,-1.4829,-1.5045,-1.5119,-1.5023,-1.5041,-1.562,-1.5627,-1.5633,-1.5596,0,0,0,0,0,0,-1.3543,-1.3612,-1.3685,-1.3901,-1.3975,-1.4286,-1.4273,-1.4308,-1.4418,-1.4422,-1.4644,-1.4677,-1.478,-1.5015,-1.5064,-1.5144,-1.5056,-1.5614,-1.5623,-1.5631,-1.5592,-1.5601,-1.5609,0,0,0,0,0,-1.3519,-1.3661,-1.3688,-1.3745,-1.407,-1.429,-1.4333,-1.4445,-1.4423,-1.45,-1.4628,-1.467,-1.5102,-1.5036,-1.5093,-1.518,-1.561,-1.562,-1.563,-1.5588,-1.5599,-1.5609,0,0,0,0,0,0,-1.3453,-1.3692,-1.3724,-1.3939,-1.4093,-1.4306,-1.4407,-1.4453,-1.462,-1.4617,-1.4753,-1.4802,-1.5009,-1.5117,-1.5038,-1.5383,-1.5357,-1.5379,-1.5305,-1.5318,-1.5326,-1.5296,-1.5073,0,0,0,0,0,-1.3463,-1.3618,-1.3819,-1.399,-1.4065,-1.4222,-1.4322,-1.4395,-1.4562,-1.4628,-1.4772,-1.4934,-1.5108,-1.5219,-1.5389,-1.5608,-1.5659,-1.5696,-1.5705,-1.5711,-1.5729,-1.5854,-1.5874,-1.5669,-1.5669,-1.5669,0,0,-1.3486,-1.3636,-1.3726,-1.3981,-1.4108,-1.4269,-1.4277,-1.4446,-1.4568,-1.4656,-1.4867,-1.4978,-1.5169,-1.5387,-1.5491,-1.5483,-1.5796,-1.5724,-1.5727,-1.5742,-1.5867,-1.5886,-1.5903,-1.5676,-1.5675,-1.5673,0,0,-1.361,-1.3738,-1.3894,-1.4022,-1.4214,-1.4318,-1.4355,-1.4562,-1.4638,-1.4851,-1.4921,-1.5069,-1.5364,-1.5497,-1.5604,-1.5779,-1.5825,-1.5831,-1.5876,-1.5997,-1.6013,-1.6028,-1.6092,-1.6113,-1.5848,-1.5848,-1.5848,0,-1.3616,-1.3857,-1.397,-1.4136,-1.4247,-1.433,-1.4492,-1.4611,-1.4851,-1.4927,-1.4914,-1.5286,-1.542,-1.5672,-1.5714,-1.5797,-1.5847,-1.5806,-1.6001,-1.6017,-1.6033,-1.6096,-1.6119,-1.5847,-1.5847,-1.5847,-1.5847,0,-1.3855,-1.4021,-1.4125,-1.435,-1.4474,-1.4636,-1.4778,-1.489,-1.4952,-1.5058,-1.5277,-1.5441,-1.5646,-1.5711,-1.5775,-1.5973,-1.5962,-1.5973,-1.595,-1.605,-1.6111,-1.6136,-1.5847,-1.5847,-1.5847,-1.5847,0,0,-1.3948,-1.4233,-1.4269,-1.4373,-1.4591,-1.4724,-1.4892,-1.5089,-1.5183,-1.5346,-1.5493,-1.574,-1.5752,-1.5872,-1.5953,-1.6059,-1.6189,-1.6058,-1.6065,-1.6077,-1.6419,-1.6409,-1.6434,-1.622,-1.6225,-1.6229,-1.6403,0,-1.41,-1.4399,-1.4506,-1.4754,-1.491,-1.4992,-1.514,-1.5291,-1.5395,-1.5547,-1.5664,-1.5836,-1.5838,-1.5912,-1.602,-1.6149,-1.6259,-1.6139,-1.6361,-1.6368,-1.631,-1.6466,-1.6457,-1.6612,-1.6427,-1.6432,-1.6435,0,-1.4317,-1.4478,-1.474,-1.4939,-1.501,-1.5139,-1.5329,-1.5471,-1.5647,-1.5715,-1.5849,-1.5923,-1.6106,-1.607,-1.6326,-1.6241,-1.6339,-1.6416,-1.6425,-1.6451,-1.6407,-1.6497,-1.6665,-1.6688,-1.6473,-1.647,-1.6467,0,-1.4359,-1.4643,-1.4837,-1.4923,-1.516,-1.5249,-1.5353,-1.5525,-1.5636,-1.5804,-1.5879,-1.6066,-1.617,-1.6315,-1.6438,-1.64,-1.6684,-1.6658,-1.6748,-1.6745,-1.6805,-1.6799,-1.6991,-1.6866,-1.6866,-1.6865,-1.6865,0,-1.4518,-1.4675,-1.4859,-1.4978,-1.5158,-1.5281,-1.5457,-1.5567,-1.5719,-1.5864,-1.5948,-1.6082,-1.6236,-1.6393,-1.6491,-1.6688,-1.6735,-1.6798,-1.6822,-1.6791,-1.6782,-1.6857,-1.685,-1.6872,-1.687,-1.6869,-1.6868,0,-1.4596,-1.4724,-1.4941,-1.5147,-1.5203,-1.5327,-1.5505,-1.5626,-1.5733,-1.5916,-1.5966,-1.6136,-1.6324,-1.6461,-1.6705,-1.6771,-1.6984,-1.7008,-1.6923,-1.6935,-1.7018,-1.7009,-1.7265,-1.7306,-1.7152,-1.7153,-1.7154,0,-1.4688,-1.4811,-1.5029,-1.513,-1.5232,-1.5395,-1.5509,-1.5636,-1.5752,-1.5961,-1.6058,-1.625,-1.6412,-1.6709,-1.6857,-1.7045,-1.7075,-1.7152,-1.7104,-1.7069,-1.7078,-1.7069,-1.7083,-1.7159,-1.716,-1.716,-1.7161,0,-1.4839,-1.4897,-1.5056,-1.5237,-1.537,-1.552,-1.5672,-1.5751,-1.5907,-1.6033,-1.6224,-1.6349,-1.6597,-1.6788,-1.6991,-1.7102,-1.7159,-1.7175,-1.7206,-1.7175,-1.7121,-1.7153,-1.6942,-1.7169,-1.7168,-1.7167,-1.7167,-1.7167,-1.4929,-1.5042,-1.5213,-1.5388,-1.5514,-1.5654,-1.5778,-1.59,-1.606,-1.6269,-1.6336,-1.6534,-1.671,-1.6986,-1.71,-1.726,-1.7258,-1.7303,-1.7314,-1.7324,-1.7322,-1.7094,-1.7298,-1.7298,-1.7297,-1.7297,-1.7297,0,-1.5085,-1.5199,-1.5358,-1.5566,-1.5704,-1.5741,-1.5912,-1.6026,-1.6198,-1.6355,-1.6511,-1.6732,-1.6918,-1.708,-1.7275,-1.7372,-1.7403,-1.7419,-1.7414,-1.7439,-1.7312,-1.7266,-1.7391,-1.7391,-1.739,-1.739,-1.739,-1.739,-1.5183,-1.5376,-1.5454,-1.5712,-1.5827,-1.6018,-1.6113,-1.6244,-1.6369,-1.661,-1.6764,-1.6867,-1.7028,-1.7235,-1.7409,-1.7452,-1.7521,-1.753,-1.758,-1.7459,-1.7448,-1.7437,-1.7394,-1.7544,-1.7544,-1.7694,-1.7695,-1.7696]},{"header":{"parameterUnit":"m.s-1","parameterCategory":1,"la1":30.2991,"la2":30.254,"lo1":-89.0895,"lo2":-89.0444,"dy":0.0017,"dx":0.0017,"nx":28,"ny":28,"refTime":"2023-07-21T21:00:00:Z","depth":0,"parameterNumber":3,"parameterNumberName":"V-component_of_WINDS"},"data":[0,0,0,0,0,0,0,0,0,0,0,0,0,0,0,0,0,0,0,0,0,0,0,0,0,0,0,0,0,0,0,0,0,0,0,0,0,0,0,0,0,0,0,0,0,0,0,0,0,0,0,0,0,0,0,0,0,0,0.6179,0.6177,0,0.5997,0.5995,0.5993,0.5955,0.5956,0.5957,0.5959,0.5761,0.5755,0.5749,0,0,0,0,0,0,0,0,0,0,0,0,0,0.6484,0.6479,0.6179,0.6177,0.6175,0.5997,0.5995,0.5992,0.5954,0.5956,0.5958,0.5959,0.5764,0.5756,0.5748,0,0,0,0,0,0,0,0,0,0,0,0,0,0.6331,0.6477,0.618,0.6135,0.6129,0.5998,0.5995,0.5991,0.5954,0.5956,0.5958,0.596,0.5766,0.5757,0.5747,0.5644,0,0,0.5717,0.5713,0,0,0,0,0,0,0,0,0.634,0.632,0.6144,0.6138,0.6131,0.6001,0.603,0.5875,0.5953,0.602,0.5959,0.5961,0.5839,0.5823,0.5784,0.5635,0.5626,0.5716,0.571,0.5706,0.5703,0,0,0,0,0,0,0,0.6351,0.6328,0.6107,0.6141,0.6133,0.612,0.6101,0.6,0.5919,0.6014,0.6011,0.5991,0.5835,0.5793,0.5779,0.5624,0.5716,0.5707,0.5701,0.5698,0.5377,0.5375,0,0,0,0,0,0,0.6371,0.6337,0.6113,0.6101,0.6243,0.6113,0.6091,0.604,0.5921,0.5905,0.5989,0.599,0.5809,0.579,0.5772,0.5641,0.5706,0.5697,0.5691,0.538,0.5377,0.5374,0,0,0,0,0,0,0.6377,0.6351,0.612,0.6218,0.6188,0.6106,0.6048,0.6036,0.5994,0.5902,0.5886,0.5962,0.581,0.5786,0.5676,0.5634,0.5692,0.5683,0.5383,0.5379,0.5375,0.5382,0,0,0,0,0,0,0.6386,0.6354,0.6317,0.6218,0.6183,0.6031,0.6046,0.603,0.5978,0.5977,0.5872,0.5856,0.581,0.5691,0.5666,0.5622,0.5676,0.5386,0.5381,0.5377,0.5385,0.5378,0.5373,0,0,0,0,0,0.6397,0.6324,0.6315,0.6288,0.6135,0.6029,0.6008,0.596,0.5975,0.5935,0.5875,0.5859,0.5643,0.568,0.5652,0.5604,0.5389,0.5383,0.5377,0.5387,0.538,0.5373,0,0,0,0,0,0,0.6417,0.631,0.6299,0.6193,0.612,0.6023,0.5971,0.5953,0.5873,0.5874,0.5814,0.579,0.5684,0.5633,0.5676,0.5496,0.5516,0.5504,0.5534,0.5526,0.552,0.5533,0.5667,0,0,0,0,0,0.641,0.6336,0.6245,0.6159,0.6124,0.6054,0.6006,0.5974,0.5896,0.5864,0.5796,0.5718,0.5631,0.5576,0.5492,0.5378,0.5352,0.533,0.5324,0.532,0.531,0.5242,0.523,0.5355,0.5355,0.5355,0,0,0.6392,0.6325,0.6281,0.6162,0.6102,0.6023,0.6028,0.5945,0.5884,0.585,0.5743,0.569,0.5598,0.5485,0.5432,0.5439,0.527,0.5312,0.531,0.5301,0.5235,0.5223,0.5213,0.5351,0.5351,0.5352,0,0,0.632,0.6263,0.6185,0.6125,0.6036,0.5989,0.5971,0.5875,0.584,0.5732,0.5704,0.5629,0.5483,0.5418,0.5365,0.5267,0.5248,0.5241,0.5209,0.5144,0.5134,0.5125,0.5087,0.5075,0.5231,0.5231,0.5231,0,0.6309,0.6192,0.6146,0.6063,0.601,0.5978,0.5896,0.5839,0.5725,0.5687,0.5698,0.5513,0.5449,0.5319,0.5295,0.5254,0.5227,0.5252,0.514,0.5131,0.5121,0.5084,0.507,0.5231,0.5231,0.5231,0.5231,0,0.6181,0.61,0.6047,0.5941,0.5881,0.5799,0.5737,0.5681,0.5655,0.5606,0.5494,0.5416,0.5315,0.5282,0.5254,0.5147,0.5154,0.5153,0.5171,0.511,0.5074,0.506,0.523,0.5231,0.5231,0.5231,0,0,0.6116,0.5986,0.5967,0.5917,0.5816,0.575,0.5665,0.5569,0.5521,0.5443,0.5367,0.5244,0.5242,0.5183,0.5147,0.509,0.5013,0.5096,0.5093,0.5081,0.4886,0.4886,0.4871,0.5001,0.4998,0.4996,0.4893,0,0.603,0.5881,0.5836,0.5709,0.5631,0.5599,0.5524,0.5452,0.5403,0.5327,0.5272,0.5185,0.5191,0.5155,0.5097,0.5035,0.4973,0.5042,0.4926,0.4922,0.4949,0.4852,0.4852,0.4759,0.4879,0.4877,0.4875,0,0.591,0.5833,0.5699,0.5605,0.5571,0.5505,0.5412,0.5341,0.5256,0.5225,0.5158,0.5127,0.5032,0.5058,0.4924,0.4972,0.4921,0.4883,0.4878,0.4864,0.4894,0.4832,0.4728,0.4713,0.4853,0.4854,0.4856,0,0.5873,0.5735,0.5637,0.5595,0.5485,0.5438,0.5389,0.5307,0.5251,0.5169,0.5131,0.5037,0.4985,0.4911,0.4854,0.4878,0.4724,0.4745,0.4691,0.4693,0.4659,0.4661,0.4542,0.463,0.463,0.4631,0.4631,0,0.578,0.5699,0.5619,0.5558,0.5464,0.5411,0.5319,0.5268,0.5194,0.512,0.5086,0.5016,0.4946,0.4865,0.4819,0.4713,0.469,0.4659,0.4647,0.4661,0.4665,0.4625,0.4629,0.4627,0.4628,0.4628,0.4629,0,0.5723,0.5666,0.5556,0.5461,0.5435,0.537,0.5286,0.5223,0.5174,0.508,0.5054,0.4975,0.4878,0.4814,0.469,0.4659,0.4543,0.4534,0.4572,0.4566,0.4515,0.452,0.4365,0.434,0.4447,0.4447,0.4446,0,0.5667,0.5604,0.5502,0.5451,0.5403,0.5321,0.5265,0.5209,0.515,0.5048,0.4997,0.4899,0.4817,0.4663,0.4592,0.4495,0.4482,0.4434,0.4467,0.4482,0.4478,0.4481,0.4473,0.4428,0.4428,0.4427,0.4426,0,0.5572,0.5547,0.5469,0.538,0.5314,0.524,0.5166,0.5126,0.5056,0.4991,0.4894,0.4831,0.4705,0.4606,0.4503,0.4447,0.4423,0.4417,0.4399,0.4411,0.4435,0.4418,0.4555,0.442,0.4421,0.4421,0.4422,0.4422,0.5511,0.5453,0.5372,0.5285,0.5224,0.5155,0.5091,0.5035,0.4953,0.4849,0.4819,0.4716,0.4629,0.4489,0.4432,0.4348,0.4352,0.4327,0.432,0.4314,0.4312,0.4451,0.4329,0.4329,0.4329,0.4329,0.4329,0,0.5413,0.5359,0.528,0.5179,0.5109,0.5097,0.5013,0.4955,0.4866,0.4789,0.471,0.4595,0.4499,0.442,0.432,0.4267,0.4253,0.4242,0.4244,0.4231,0.4315,0.434,0.4255,0.4255,0.4255,0.4255,0.4255,0.4255,0.5353,0.5253,0.5218,0.5086,0.5031,0.4933,0.4886,0.4821,0.4759,0.4634,0.4555,0.4506,0.4426,0.432,0.4229,0.4208,0.4171,0.4162,0.4138,0.4217,0.4225,0.4233,0.4256,0.4155,0.4155,0.406,0.4059,0.4058]}]]